| time (UTC) | temp F | wind direction | speed MPH | gust MPH | rain 1hr in | rain 24hr in | rain mn in | humidity % | barometer mb |
| 20260505094032 | 71 | 180 | 11.0 | 16.0 | 0.00 | 0.00 | 0.00 | 91 | 1006.3 |
| 20260505093018 | 70 | 178 | 11.0 | 18.0 | 0.00 | 0.00 | 0.00 | 91 | 1006.4 |
| 20260505092022 | 70 | 169 | 10.0 | 15.0 | 0.00 | 0.00 | 0.00 | 92 | 1006.5 |
| 20260505091047 | 70 | 175 | 11.0 | 18.0 | 0.00 | 0.00 | 0.00 | 92 | 1006.5 |
| 20260505090030 | 70 | 189 | 10.0 | 13.0 | 0.00 | 0.00 | 0.00 | 92 | 1006.4 |
| 20260505085016 | 70 | 191 | 9.0 | 16.0 | 0.00 | 0.00 | 0.00 | 91 | 1006.5 |
| 20260505084020 | 70 | 189 | 10.0 | 15.0 | 0.00 | 0.00 | 0.00 | 91 | 1006.4 |
| 20260505083024 | 70 | 181 | 12.0 | 17.0 | 0.00 | 0.00 | 0.00 | 91 | 1006.4 |
| 20260505082028 | 70 | 170 | 13.0 | 18.0 | 0.00 | 0.00 | 0.00 | 91 | 1006.5 |
| 20260505081027 | 70 | 174 | 10.0 | 15.0 | 0.00 | 0.00 | 0.00 | 90 | 1006.6 |
| 20260505080018 | 70 | 174 | 11.0 | 17.0 | 0.00 | 0.00 | 0.00 | 90 | 1006.8 |
| 20260505075023 | 71 | 177 | 13.0 | 20.0 | 0.00 | 0.00 | 0.00 | 89 | 1006.9 |
| 20260505074041 | 71 | 180 | 11.0 | 15.0 | 0.00 | 0.00 | 0.00 | 89 | 1007.1 |
| 20260505073019 | 71 | 186 | 11.0 | 15.0 | 0.00 | 0.00 | 0.00 | 88 | 1007.3 |
| 20260505072017 | 71 | 168 | 10.0 | 13.0 | 0.00 | 0.00 | 0.00 | 88 | 1007.4 |
| 20260505071015 | 71 | 177 | 11.0 | 16.0 | 0.00 | 0.00 | 0.00 | 87 | 1007.5 |
| 20260505070025 | 71 | 179 | 11.0 | 13.0 | 0.00 | 0.00 | 0.00 | 87 | 1007.6 |
| 20260505065110 | 71 | 183 | 9.0 | 16.0 | 0.00 | 0.00 | 0.00 | 86 | 1007.8 |
| 20260505064015 | 72 | 168 | 12.0 | 16.0 | 0.00 | 0.00 | 0.00 | 86 | 1007.9 |
| 20260505063040 | 72 | 183 | 10.0 | 12.0 | 0.00 | 0.00 | 0.00 | 85 | 1008.0 |
| 20260505062024 | 72 | 173 | 8.0 | 12.0 | 0.00 | 0.00 | 0.00 | 84 | 1008.0 |
| 20260505061027 | 72 | 169 | 10.0 | 14.0 | 0.00 | 0.00 | 0.00 | 83 | 1007.9 |
| 20260505060032 | 72 | 167 | 11.0 | 16.0 | 0.00 | 0.00 | 0.00 | 82 | 1007.7 |
| 20260505055018 | 72 | 173 | 12.0 | 16.0 | 0.00 | 0.00 | 0.00 | 81 | 1007.8 |
| 20260505054022 | 73 | 181 | 12.0 | 20.0 | 0.00 | 0.00 | 0.00 | 80 | 1007.8 |
| 20260505053026 | 73 | 177 | 12.0 | 16.0 | 0.00 | 0.00 | 0.00 | 79 | 1007.9 |
| 20260505052030 | 73 | 169 | 12.0 | 15.0 | 0.00 | 0.00 | 0.00 | 78 | 1008.0 |
| 20260505051016 | 73 | 176 | 10.0 | 13.0 | 0.00 | 0.00 | 0.00 | 78 | 1008.2 |
| 20260505041015 | 74 | 170 | 11.0 | 17.0 | 0.00 | 0.00 | 0.00 | 76 | 1008.3 |
| 20260505040031 | 74 | 169 | 10.0 | 14.0 | 0.00 | 0.00 | 0.00 | 76 | 1008.4 |
| 20260505035017 | 74 | 165 | 9.0 | 13.0 | 0.00 | 0.00 | 0.00 | 76 | 1008.2 |
| 20260505034021 | 74 | 143 | 8.0 | 10.0 | 0.00 | 0.00 | 0.00 | 76 | 1008.2 |
| 20260505033025 | 74 | 162 | 9.0 | 11.0 | 0.00 | 0.00 | 0.00 | 76 | 1008.1 |
| 20260505032029 | 74 | 169 | 10.0 | 13.0 | 0.00 | 0.00 | 0.00 | 76 | 1008.2 |
| 20260505031015 | 74 | 156 | 9.0 | 13.0 | 0.00 | 0.00 | 0.00 | 76 | 1008.3 |
| 20260505030020 | 74 | 144 | 8.0 | 11.0 | 0.00 | 0.00 | 0.00 | 76 | 1008.4 |
| 20260505025023 | 74 | 170 | 9.0 | 12.0 | 0.00 | 0.00 | 0.00 | 76 | 1008.1 |
| 20260505024028 | 74 | 174 | 9.0 | 14.0 | 0.00 | 0.00 | 0.00 | 75 | 1008.1 |
| 20260505023037 | 75 | 166 | 8.0 | 13.0 | 0.00 | 0.00 | 0.00 | 75 | 1008.0 |
| 20260505022017 | 74 | 146 | 8.0 | 11.0 | 0.00 | 0.00 | 0.00 | 75 | 1007.9 |
| 20260505021022 | 75 | 148 | 8.0 | 11.0 | 0.00 | 0.00 | 0.00 | 74 | 1008.0 |
| 20260505020025 | 75 | 166 | 10.0 | 17.0 | 0.00 | 0.00 | 0.00 | 74 | 1007.8 |
| 20260505015050 | 75 | 152 | 6.0 | 8.0 | 0.00 | 0.00 | 0.00 | 73 | 1008.1 |
| 20260505014036 | 75 | 163 | 8.0 | 12.0 | 0.00 | 0.00 | 0.00 | 73 | 1007.8 |
| 20260505013020 | 75 | 165 | 7.0 | 16.0 | 0.00 | 0.00 | 0.00 | 72 | 1007.9 |
| 20260505012024 | 76 | 158 | 8.0 | 11.0 | 0.00 | 0.00 | 0.00 | 71 | 1008.0 |
| 20260505011027 | 76 | 172 | 9.0 | 13.0 | 0.00 | 0.00 | 0.00 | 71 | 1007.9 |
| 20260505010031 | 76 | 172 | 8.0 | 13.0 | 0.00 | 0.00 | 0.00 | 70 | 1007.9 |
| 20260505005058 | 76 | 177 | 10.0 | 13.0 | 0.00 | 0.00 | 0.00 | 70 | 1008.0 |
| 20260505004021 | 77 | 169 | 9.0 | 15.0 | 0.00 | 0.00 | 0.00 | 69 | 1008.1 |
| 20260505003025 | 77 | 169 | 11.0 | 15.0 | 0.00 | 0.00 | 0.00 | 69 | 1008.2 |
| 20260505002030 | 77 | 171 | 13.0 | 18.0 | 0.00 | 0.00 | 0.00 | 68 | 1008.2 |
| 20260505001016 | 77 | 170 | 12.0 | 17.0 | 0.00 | 0.00 | 0.00 | 68 | 1008.2 |
| 20260505000040 | 78 | 170 | 11.0 | 16.0 | 0.00 | 0.00 | 0.00 | 67 | 1008.4 |
| 20260504235024 | 78 | 172 | 12.0 | 17.0 | 0.00 | 0.00 | 0.00 | 67 | 1008.5 |
| 20260504234022 | 78 | 166 | 10.0 | 16.0 | 0.00 | 0.00 | 0.00 | 66 | 1008.5 |
| 20260504233039 | 78 | 166 | 14.0 | 20.0 | 0.00 | 0.00 | 0.00 | 66 | 1008.6 |
| 20260504232018 | 78 | 174 | 12.0 | 16.0 | 0.00 | 0.00 | 0.00 | 66 | 1008.6 |
| 20260504231015 | 78 | 163 | 13.0 | 17.0 | 0.00 | 0.00 | 0.00 | 65 | 1008.7 |
| 20260504230106 | 78 | 168 | 13.0 | 20.0 | 0.00 | 0.00 | 0.00 | 65 | 1008.8 |
| 20260504225030 | 79 | 159 | 13.0 | 21.0 | 0.00 | 0.00 | 0.00 | 64 | 1008.8 |
| 20260504224016 | 79 | 175 | 14.0 | 18.0 | 0.00 | 0.00 | 0.00 | 64 | 1008.9 |
| 20260504223020 | 79 | 149 | 12.0 | 18.0 | 0.00 | 0.00 | 0.00 | 64 | 1009.1 |
| 20260504222024 | 79 | 171 | 14.0 | 20.0 | 0.00 | 0.00 | 0.00 | 64 | 1009.1 |
| 20260504221028 | 79 | 161 | 14.0 | 18.0 | 0.00 | 0.00 | 0.00 | 64 | 1009.1 |
| 20260504220033 | 79 | 170 | 13.0 | 21.0 | 0.00 | 0.00 | 0.00 | 64 | 1009.2 |
| 20260504215019 | 80 | 180 | 14.0 | 21.0 | 0.00 | 0.00 | 0.00 | 63 | 1009.3 |
| 20260504214022 | 80 | 172 | 14.0 | 21.0 | 0.00 | 0.00 | 0.00 | 61 | 1009.5 |
| 20260504213026 | 80 | 176 | 15.0 | 21.0 | 0.00 | 0.00 | 0.00 | 62 | 1009.6 |
| 20260504212032 | 81 | 178 | 15.0 | 20.0 | 0.00 | 0.00 | 0.00 | 61 | 1009.7 |
| 20260504211017 | 80 | 165 | 14.0 | 20.0 | 0.00 | 0.00 | 0.00 | 62 | 1010.0 |
| 20260504210020 | 80 | 150 | 13.0 | 17.0 | 0.00 | 0.00 | 0.00 | 62 | 1010.0 |
| 20260504205025 | 80 | 166 | 11.0 | 17.0 | 0.00 | 0.00 | 0.00 | 61 | 1010.3 |
| 20260504204028 | 80 | 180 | 13.0 | 18.0 | 0.00 | 0.00 | 0.00 | 62 | 1010.5 |
| 20260504203033 | 80 | 160 | 14.0 | 18.0 | 0.00 | 0.00 | 0.00 | 62 | 1010.7 |
| 20260504202019 | 80 | 168 | 12.0 | 17.0 | 0.00 | 0.00 | 0.00 | 61 | 1010.9 |
| 20260504201025 | 80 | 163 | 12.0 | 17.0 | 0.00 | 0.00 | 0.00 | 62 | 1011.0 |
| 20260504200027 | 79 | 182 | 11.0 | 18.0 | 0.00 | 0.00 | 0.00 | 63 | 1011.5 |
| 20260504195031 | 79 | 160 | 14.0 | 20.0 | 0.00 | 0.00 | 0.00 | 63 | 1011.9 |
| 20260504194018 | 79 | 168 | 9.0 | 12.0 | 0.00 | 0.00 | 0.00 | 63 | 1012.0 |
| 20260504193026 | 79 | 191 | 11.0 | 15.0 | 0.00 | 0.00 | 0.00 | 62 | 1012.0 |
| 20260504192025 | 78 | 173 | 12.0 | 19.0 | 0.00 | 0.00 | 0.00 | 62 | 1012.1 |
| 20260504191029 | 79 | 172 | 11.0 | 17.0 | 0.00 | 0.00 | 0.00 | 62 | 1012.2 |
| 20260504190035 | 78 | 158 | 10.0 | 16.0 | 0.00 | 0.00 | 0.00 | 63 | 1012.5 |
| 20260504185019 | 79 | 179 | 11.0 | 18.0 | 0.00 | 0.00 | 0.00 | 62 | 1012.6 |
| 20260504184023 | 77 | 176 | 12.0 | 18.0 | 0.00 | 0.00 | 0.00 | 63 | 1012.6 |
| 20260504183021 | 77 | 171 | 13.0 | 18.0 | 0.00 | 0.00 | 0.00 | 62 | 1012.7 |
| 20260504182039 | 77 | 182 | 13.0 | 17.0 | 0.00 | 0.00 | 0.00 | 62 | 1012.9 |
| 20260504181017 | 77 | 182 | 14.0 | 18.0 | 0.00 | 0.00 | 0.00 | 62 | 1013.0 |
| 20260504180015 | 77 | 167 | 13.0 | 21.0 | 0.00 | 0.00 | 0.00 | 61 | 1013.2 |
| 20260504175025 | 77 | 157 | 11.0 | 18.0 | 0.00 | 0.00 | 0.00 | 61 | 1013.2 |
| 20260504174024 | 77 | 165 | 10.0 | 14.0 | 0.00 | 0.00 | 0.00 | 61 | 1013.3 |
| 20260504173028 | 76 | 177 | 13.0 | 19.0 | 0.00 | 0.00 | 0.00 | 61 | 1013.6 |
| 20260504172052 | 76 | 159 | 10.0 | 15.0 | 0.00 | 0.00 | 0.00 | 61 | 1013.8 |
| 20260504171017 | 75 | 171 | 14.0 | 21.0 | 0.00 | 0.00 | 0.00 | 61 | 1013.9 |
| 20260504151036 | 70 | 173 | 13.0 | 17.0 | 0.00 | 0.00 | 0.00 | 70 | 1015.2 |
| 20260504141017 | 67 | 190 | 12.0 | 18.0 | 0.00 | 0.00 | 0.00 | 75 | 1015.6 |